This is the latest recevied weather packets stored in our database for station/object KCXW. If no packets are shown the sender has not sent any weather packets the latest 1 day(s).
| Time | Temp. | Humidity | Pressure | Rain* | Wind** | Luminosity | Snow |
|---|---|---|---|---|---|---|---|
| 1836274576 | 21.67° C | 100% | 1016.6 hPa | - | 0 m/s | - | - |
| 1836274428 | 20.56° C | 100% | 1016.6 hPa | - | 0 m/s | - | - |
| 1836273976 | 21.67° C | 100% | 1016.6 hPa | - | 0 m/s | - | - |
| 1778047411 | 12.78° C | 100% | 1008.8 hPa | - | 5.81 m/s, 10° | - | - |
| 1778046808 | 12.78° C | 100% | 1008.1 hPa | - | 5.81 m/s, 10° | - | - |
| 1778046212 | 12.78° C | 100% | 1008.1 hPa | - | 5.81 m/s, 10° | - | - |
| 1778045605 | 13.89° C | 100% | 1008.1 hPa | - | 7.15 m/s, 10° | - | - |
| 1778045007 | 13.89° C | 100% | 1008.1 hPa | - | 7.15 m/s, 10° | - | - |
| 1778044407 | 15° C | 100% | 1007.1 hPa | - | 8.49 m/s, 30° | - | - |
| 1778043809 | 15° C | 100% | 1007.1 hPa | - | 8.49 m/s, 30° | - | - |
| 1778043206 | 17.78° C | 100% | 1007.1 hPa | - | 7.15 m/s, 30° | - | - |
| 1778042609 | 17.78° C | 100% | 1007.1 hPa | - | 7.15 m/s, 30° | - | - |
| 1778042008 | 20.56° C | 100% | 1006.8 hPa | - | 6.71 m/s, 30° | - | - |
| 1778041408 | 20.56° C | 100% | 1006.8 hPa | - | 6.71 m/s, 30° | - | - |
| 1778040810 | 21.67° C | 100% | 1006.4 hPa | - | 4.47 m/s, 360° | - | - |
| 1778040328 | 21.67° C | 100% | 1006.4 hPa | - | 4.47 m/s, 360° | - | - |
| 1778039605 | 21.67° C | 100% | 1006.1 hPa | - | 0 m/s | - | - |
| 1778039013 | 21.67° C | 100% | 1006.1 hPa | - | 0 m/s | - | - |
| 1778038412 | 21.67° C | 100% | 1005.4 hPa | - | 0 m/s | - | - |
| 1778037810 | 21.67° C | 100% | 1005.4 hPa | - | 0 m/s | - | - |
| 1778037207 | 21.67° C | 100% | 1006.1 hPa | - | 3.58 m/s, 160° | - | - |
| 1778036605 | 21.67° C | 100% | 1006.1 hPa | - | 3.58 m/s, 160° | - | - |
| 1778036006 | 21.67° C | 100% | 1005.8 hPa | - | 2.24 m/s, 160° | - | - |
| 1778035406 | 21.67° C | 100% | 1005.8 hPa | - | 2.24 m/s, 160° | - | - |
| 1778034805 | 21.67° C | 100% | 1005.8 hPa | - | 3.58 m/s, 170° | - | - |
* Rain since midnight (hover to see other rain measurements)
** Current wind speed in m/s (hover to see current wind gust speed)